Theta_e
327 332 329 329 336 336 338 335 332 333 332 330 330 335 339 340 337 340 338 340 340 339 338 338 332 330 334 333 334 330 330 332 332 329 327 328 328 330 330 329 328 331 333 330 329 329 327 326 321
330 326 328 333 338 339 337 332 334 333 332 332 332 335 336 341 338 339 339 340 339 339 339 338 332 328 329 333 333 332 332 334 334 332 330 329 328 328 330 330 329 329 329 330 331 329 327 324 322
326 325 334 337 338 339 336 332 333 330 330 329 332 332 333 337 337 339 339 340 339 339 339 338 332 329 327 333 333 334 334 334 333 332 330 330 327 328 327 329 329 328 328 329 333 329 326 324 323
325 328 330 338 339 334 333 332 330 332 329 328 329 331 335 336 338 338 340 340 339 339 339 335 333 330 329 328 334 334 336 334 331 331 331 329 326 327 327 327 327 327 327 325 330 332 327 326 324
326 330 336 338 336 332 330 331 331 332 330 329 328 329 334 336 337 339 340 339 339 339 339 337 334 331 328 327 327 334 336 333 329 330 330 329 328 324 322 325 326 325 325 324 324 328 326 327 326
332 331 337 339 336 331 330 330 331 331 331 332 328 327 332 337 338 340 340 339 339 339 339 339 335 333 332 326 326 327 330 331 330 328 329 329 328 326 324 322 322 323 322 322 321 318 321 325 324
335 335 336 337 335 332 331 329 331 332 333 329 325 324 333 337 338 340 340 339 339 339 339 339 338 335 333 327 325 326 333 334 330 325 330 329 328 327 326 325 324 325 325 322 322 318 315 315 316
329 332 334 334 334 333 330 330 329 330 329 328 330 326 330 334 339 340 339 339 339 339 339 339 339 337 337 333 325 324 325 328 328 325 328 330 328 328 326 327 326 325 326 326 324 323 322 321 319
324 335 337 334 334 333 329 331 328 328 331 332 332 328 331 336 339 339 339 338 338 338 338 338 337 337 337 336 332 326 323 323 324 325 325 330 331 331 330 329 329 327 326 325 325 325 324 323 322
328 336 335 331 331 332 329 331 330 333 333 334 335 333 334 338 339 339 338 338 338 338 338 338 337 337 337 336 333 331 331 329 328 328 329 328 329 329 330 329 326 327 328 327 326 326 325 324 326
325 333 326 325 326 330 330 330 330 333 334 332 332 333 334 338 338 338 338 337 337 337 338 337 337 337 336 336 335 333 332 331 330 329 328 329 328 329 328 328 328 328 328 328 328 328 328 328 328
327 324 324 323 323 327 330 329 331 332 331 327 332 331 333 336 337 337 337 337 337 337 337 337 337 336 336 335 334 334 333 332 331 330 329 329 329 329 329 329 328 328 328 328 328 328 328 328 328
326 325 323 322 322 326 325 328 331 331 324 326 329 332 334 333 334 335 336 336 336 336 336 336 337 336 336 335 335 334 334 333 332 332 331 330 330 330 330 329 328 328 327 327 327 327 327 327 327
323 324 324 323 323 323 327 325 325 328 326 329 332 333 333 332 333 334 334 334 335 335 335 336 336 336 335 335 335 334 334 333 333 333 332 331 331 331 331 330 330 329 328 328 327 327 328 327 327
323 326 325 325 324 324 324 327 328 324 325 328 331 333 333 333 333 333 332 333 334 334 334 335 335 335 335 336 336 335 335 333 333 333 333 332 331 332 331 331 331 330 330 328 328 328 328 327 327
325 325 326 323 324 323 325 335 328 322 325 328 330 332 332 332 333 332 332 332 332 333 333 333 332 332 334 335 335 335 335 334 333 333 333 332 331 331 332 331 331 331 330 329 329 328 327 328 327
325 329 326 324 322 324 325 330 322 320 322 326 327 329 330 330 329 329 330 331 331 331 331 331 331 331 332 332 333 334 334 334 334 333 333 333 332 332 332 332 332 332 331 331 330 329 328 327 327
327 327 325 325 321 323 325 325 323 320 320 323 323 323 323 324 325 325 325 324 324 324 325 327 328 328 329 330 331 331 332 333 333 333 332 331 331 331 331 331 330 330 331 331 331 331 330 328 328
322 323 323 321 319 321 323 325 324 322 321 323 323 322 322 321 321 320 319 318 318 317 317 318 318 319 319 322 324 325 326 325 325 324 320 318 319 321 324 325 325 326 327 329 331 332 330 329 328
321 322 323 321 319 321 321 322 321 320 319 319 320 320 320 319 320 319 319 318 318 317 317 316 316 317 318 320 321 320 320 320 319 317 316 315 317 320 319 320 325 324 325 328 331 332 331 329 329
324 322 322 320 321 319 319 320 319 317 317 317 317 318 318 319 318 318 317 316 317 317 316 316 315 315 316 316 316 316 316 315 316 318 319 319 319 320 320 320 322 323 323 326 330 331 331 330 329
326 323 323 324 324 324 318 323 320 317 315 313 314 315 315 314 313 313 313 314 314 315 315 314 314 314 313 314 313 314 316 317 318 319 317 317 318 319 318 319 320 323 324 326 327 327 327 329 328
319 322 322 322 322 323 321 321 318 314 313 312 312 310 312 312 311 311 310 309 309 309 311 312 311 311 311 311 311 311 313 315 316 317 316 316 316 316 318 318 319 321 323 325 326 326 326 325 327
319 320 320 321 321 319 314 315 311 311 311 311 311 312 312 311 310 309 309 308 309 308 308 309 309 308 309 308 308 309 310 313 315 317 316 316 315 316 317 318 319 320 320 320 321 322 323 322 323
319 317 321 322 322 313 313 317 311 311 310 311 311 313 311 310 311 310 310 309 308 307 307 307 306 306 307 307 306 306 307 309 312 315 316 316 315 313 316 318 318 317 317 317 317 318 319 320 318
319 315 318 317 319 314 313 315 314 313 312 312 310 310 309 310 311 311 309 308 308 306 305 305 305 305 305 305 305 305 306 306 307 309 311 312 313 312 314 315 315 314 314 315 314 313 315 313 316
319 319 313 314 310 317 315 314 313 313 313 310 310 308 311 310 310 310 309 309 308 307 306 305 304 305 305 305 304 304 303 304 304 306 307 309 311 312 312 312 313 311 309 309 308 308 309 311 310
318 316 318 319 320 318 314 312 313 312 311 310 310 311 310 309 310 310 309 308 307 306 306 305 305 305 304 303 303 302 302 302 302 303 303 304 305 306 307 307 308 307 306 304 303 303 304 305 306
316 318 317 317 316 316 314 312 311 312 311 311 311 311 311 310 311 310 308 308 307 306 305 304 304 304 304 304 303 303 302 302 301 300 301 301 302 302 303 303 303 302 301 300 299 298 298 299 299
314 316 317 321 320 318 316 314 308 309 309 309 309 308 309 310 311 309 308 307 307 306 305 305 304 304 303 302 302 302 301 300 299 299 298 298 299 299 300 300 300 299 299 297 296 296 296 295 295
Wind_Speed
3 13 9 5 4 2 5 5 1 8 7 3 4 3 2 4 2 3 8 8 14 19 15 13 12 12 13 12 11 11 11 9 8 8 7 6 5 4 4 5 6 7 8 5 4 8 8 9 9
11 10 3 2 4 4 5 5 8 7 5 10 7 6 3 3 3 8 12 7 17 17 15 12 12 11 12 13 12 11 9 8 8 6 5 4 3 3 4 5 6 6 5 4 3 6 7 7 8
11 3 3 3 2 2 5 8 9 10 9 5 4 1 2 4 4 14 5 13 17 16 14 12 11 10 10 10 12 11 10 8 7 4 4 4 4 4 4 5 6 6 5 5 5 4 5 6 6
5 4 2 5 5 3 3 12 9 12 3 4 3 6 3 2 13 6 12 16 18 16 13 12 10 8 8 8 9 11 12 9 4 4 4 5 5 4 5 7 5 4 3 3 6 6 2 2 3
2 2 3 3 3 4 3 10 16 11 7 7 5 6 6 7 6 10 15 16 17 15 13 12 10 8 7 8 9 9 11 7 5 5 4 4 3 3 3 6 4 3 1 1 3 4 2 1 2
3 2 6 7 5 4 7 10 10 6 5 6 5 9 6 7 10 15 16 17 15 14 13 12 11 8 7 7 9 11 10 8 7 6 5 3 3 3 3 4 3 2 2 2 2 3 5 6 4
4 4 5 6 9 8 8 9 9 7 7 5 7 6 4 9 11 16 17 17 16 15 14 13 12 10 8 8 9 10 10 11 9 8 7 6 6 5 5 4 3 3 1 1 2 2 2 3 4
1 2 7 6 12 7 11 11 3 7 7 5 1 4 6 14 16 18 17 15 16 17 15 15 13 12 10 9 10 11 12 12 11 9 10 10 10 10 8 8 7 7 6 5 4 4 4 4 4
2 5 8 9 13 9 12 10 4 1 8 3 3 0 2 20 20 17 16 15 15 16 16 15 15 13 12 10 10 11 11 12 12 12 12 13 10 9 10 11 12 10 9 9 8 8 8 8 8
2 5 8 5 7 12 16 11 12 7 8 5 5 5 14 20 20 18 17 17 16 15 15 14 14 14 12 10 10 11 10 11 11 11 11 11 11 10 10 11 12 12 13 13 12 12 11 11 8
3 1 3 4 3 9 15 10 8 6 7 6 10 12 17 19 18 16 16 16 17 15 14 14 14 13 13 11 10 10 10 11 12 12 11 11 10 10 11 10 10 11 12 12 12 12 11 11 10
2 3 2 2 4 8 12 11 8 9 2 2 4 14 19 17 19 19 17 16 15 15 15 14 14 13 12 11 11 10 11 11 11 12 13 12 11 11 11 11 11 11 11 12 12 12 12 12 12
3 3 3 3 4 7 9 7 7 9 3 1 7 13 15 15 17 16 14 14 14 14 14 14 15 15 14 14 12 12 12 12 12 12 13 13 12 12 11 11 11 12 11 12 13 13 13 13 13
3 2 2 2 4 5 8 3 3 7 6 5 9 13 14 14 15 13 15 16 15 14 13 13 15 15 14 15 15 14 14 14 13 13 13 15 15 13 13 13 13 13 13 13 13 13 13 13 13
2 1 1 2 2 3 4 3 9 3 7 7 8 9 11 13 13 18 16 17 16 16 13 15 15 15 17 17 16 16 16 16 16 16 15 17 17 16 15 15 16 16 14 15 15 16 17 15 14
2 1 4 1 1 3 4 14 8 4 6 8 7 9 10 12 15 15 16 17 15 14 15 14 18 19 19 18 17 17 17 17 18 17 17 19 21 20 17 18 19 18 16 16 16 16 17 20 21
1 6 4 1 3 2 4 6 2 1 4 6 6 6 6 8 11 16 18 17 16 16 17 17 16 18 20 20 19 18 18 17 17 16 17 18 18 19 19 20 20 18 18 18 17 17 17 18 21
7 8 4 6 4 1 1 11 2 5 3 7 7 7 7 9 12 15 16 14 16 17 19 19 18 21 21 18 18 17 17 20 18 18 18 17 17 17 18 19 20 19 19 19 19 19 18 19 20
3 2 5 1 3 2 5 11 13 4 6 9 10 9 9 11 16 17 16 14 15 18 19 20 19 22 20 18 14 15 18 16 19 20 20 19 18 18 18 18 19 18 20 20 20 20 18 19 17
8 7 5 2 2 3 4 9 13 10 9 10 11 13 15 15 17 20 17 16 16 17 16 16 18 17 19 18 15 12 10 12 13 16 17 17 17 17 18 18 18 18 19 19 20 19 17 17 18
11 13 9 7 1 2 7 15 10 3 6 9 13 16 17 17 17 17 18 17 18 18 17 16 14 15 16 16 16 16 15 14 14 12 11 12 14 14 15 16 16 19 20 21 19 18 17 19 19
15 8 9 6 3 7 3 7 5 5 7 8 13 12 9 10 11 12 14 14 13 14 12 15 15 13 14 15 13 12 11 10 7 8 11 13 15 14 15 15 15 16 19 21 21 18 16 19 19
4 7 6 4 6 5 9 6 3 2 6 13 8 1 2 4 7 8 9 10 11 12 10 8 10 11 11 11 11 8 9 9 10 9 10 11 13 14 13 13 14 16 16 17 19 20 20 21 16
13 10 7 4 2 6 9 8 8 6 10 4 4 4 5 5 7 8 8 8 9 8 4 5 7 7 9 10 9 9 9 9 10 9 9 10 10 11 13 14 14 15 15 16 16 16 18 16 15
6 13 4 4 4 6 4 6 7 6 10 8 5 7 4 6 7 6 5 6 7 5 2 2 4 6 8 8 8 9 9 9 10 10 11 11 10 10 12 14 15 15 16 17 18 19 19 18 17
11 9 4 7 6 5 4 7 2 12 9 4 7 6 6 5 3 4 4 4 3 2 2 3 4 6 8 9 10 10 11 12 12 12 12 12 11 11 14 14 18 19 18 18 17 15 16 16 17
6 7 1 0 2 2 6 6 9 10 12 6 5 3 2 1 2 3 4 5 5 3 3 4 6 8 10 11 12 13 13 14 15 16 17 17 18 18 19 18 20 20 19 19 18 17 18 19 17
3 9 3 1 3 6 5 5 8 6 10 4 7 4 4 2 3 2 1 4 6 7 6 6 8 10 11 13 13 14 15 17 18 19 20 19 19 19 19 20 20 21 21 20 19 19 19 19 18
5 5 3 4 3 3 4 4 6 14 9 10 8 4 3 4 4 2 1 4 7 9 9 9 10 12 14 15 16 18 19 20 20 22 22 21 21 21 21 21 21 21 21 20 19 17 16 16 14
7 8 9 3 4 4 3 7 0 5 8 6 4 5 7 6 4 3 6 7 7 8 9 11 11 14 16 16 18 21 22 22 23 24 22 22 23 23 23 23 23 22 22 20 19 17 16 15 14
Wind_Direction
88 140 155 188 212 222 138 157 156 152 161 114 124 209 181 27 345 38 134 138 146 153 158 160 162 161 162 164 161 153 144 136 133 130 130 132 133 121 102 93 94 113 97 95 96 93 86 81 67
145 144 195 232 237 198 145 146 180 154 111 127 120 132 163 95 79 112 141 155 152 154 156 160 163 162 167 168 175 166 155 145 138 130 128 129 124 124 118 102 95 97 116 114 108 109 94 74 64
146 176 233 226 222 207 154 168 147 127 134 156 133 6 129 112 112 140 130 151 152 154 156 162 160 158 164 169 179 178 169 160 149 134 125 118 105 108 105 117 107 107 109 104 123 117 86 65 63
163 174 157 241 174 107 129 156 156 147 182 198 164 136 129 77 138 143 146 152 153 155 155 164 158 157 165 172 175 184 178 164 157 143 130 129 116 116 107 135 128 121 109 107 117 133 117 48 55
160 197 182 195 143 118 140 152 158 159 147 152 185 144 124 141 127 137 146 154 157 156 155 160 167 159 167 178 180 174 174 184 177 166 152 153 159 143 145 158 180 176 148 65 157 170 183 260 320
170 244 194 188 157 130 140 158 165 160 153 138 165 146 134 153 153 150 151 156 162 162 161 169 178 177 170 179 186 189 199 201 196 177 191 208 211 194 173 171 187 209 237 229 256 240 238 249 263
206 204 184 171 151 152 156 166 187 166 158 161 135 146 116 174 166 159 156 159 166 173 175 178 185 189 187 187 190 196 198 207 219 199 195 219 236 236 218 212 213 220 254 248 263 268 276 265 262
203 183 153 170 175 161 157 167 206 177 147 118 211 163 159 172 163 158 160 164 173 180 185 185 193 193 194 199 199 198 208 218 224 213 199 210 230 242 232 230 233 233 242 253 263 273 279 276 270
287 196 187 169 175 149 157 170 160 101 146 164 153 180 79 151 156 161 167 170 179 188 192 192 194 200 201 201 207 209 211 216 222 224 217 214 222 236 234 236 236 244 247 250 257 266 272 276 278
298 226 179 157 157 162 166 172 160 179 167 171 156 112 137 153 166 172 179 183 189 196 199 201 202 204 208 212 212 214 217 217 219 220 221 223 230 234 232 238 249 250 251 253 256 261 264 270 264
28 343 152 142 149 170 159 161 156 174 190 190 176 154 158 168 182 189 197 194 195 197 204 207 210 211 212 216 214 217 219 220 223 223 221 225 230 238 243 245 251 249 255 250 257 255 255 248 252
136 44 328 121 142 153 169 144 171 193 90 6 155 161 165 180 190 199 203 199 197 200 207 210 211 217 219 221 223 225 224 226 227 226 225 224 230 237 239 243 247 247 246 245 245 249 248 250 254
31 30 27 35 129 133 141 167 177 195 144 73 151 164 182 189 196 204 209 218 214 218 212 213 213 217 221 226 230 233 235 237 237 236 235 232 235 239 243 246 247 247 246 245 246 249 250 252 253
358 31 46 37 112 115 161 149 200 194 174 147 169 182 189 197 200 207 215 221 224 228 224 220 222 224 226 228 230 233 238 242 243 244 242 244 242 245 247 250 251 251 247 247 247 248 251 253 253
340 198 55 70 51 97 143 174 219 139 185 183 186 188 197 204 205 218 221 227 228 233 233 229 229 228 231 236 239 239 237 239 243 247 248 247 248 248 249 252 252 253 248 246 244 244 246 247 249
222 237 202 113 0 46 228 210 201 154 195 197 194 205 208 214 221 233 239 239 235 239 238 237 239 238 238 237 239 241 242 239 243 245 249 253 253 252 250 252 253 253 249 245 244 245 244 252 255
306 211 184 261 61 341 229 227 74 162 233 220 217 229 237 248 237 242 240 246 246 244 245 245 242 243 243 244 242 242 244 243 245 246 250 254 255 254 251 254 258 256 252 247 244 244 243 249 248
195 212 203 219 48 208 212 256 180 45 271 263 269 266 265 264 257 251 256 250 252 250 252 250 245 248 248 244 243 240 240 242 244 248 252 257 257 255 252 255 256 255 252 247 242 242 244 246 256
148 200 238 309 66 292 242 261 270 290 278 268 265 272 268 262 269 268 265 268 266 263 258 255 250 249 240 237 233 236 237 241 246 251 256 260 260 259 257 258 259 253 248 247 244 243 244 248 253
185 208 227 251 58 281 278 269 277 267 257 256 267 267 264 268 267 268 274 278 272 271 268 262 252 241 237 231 234 233 237 241 242 250 258 263 266 267 264 261 257 253 251 248 242 240 243 250 246
209 214 209 248 283 175 296 268 241 255 246 252 255 253 260 265 282 288 289 288 287 275 269 262 254 242 237 236 238 243 248 255 259 259 261 262 263 264 267 267 265 260 255 252 248 244 236 243 247
216 207 205 197 244 253 354 278 233 256 269 258 252 246 275 292 289 288 292 287 287 288 281 264 254 242 235 235 237 238 244 253 260 268 268 275 273 270 274 269 266 262 257 259 257 252 249 252 258
225 172 189 211 239 282 226 262 235 304 267 247 257 46 76 324 303 298 309 309 311 298 276 252 236 232 235 239 243 254 262 271 276 280 281 280 280 274 268 268 263 262 260 260 260 261 260 259 251
134 117 80 76 157 247 230 236 247 211 241 272 119 12 338 330 319 317 315 303 311 317 294 233 222 230 239 245 251 256 265 276 277 278 280 273 270 271 267 266 262 260 259 259 261 260 256 251 249
180 165 147 196 210 250 149 221 276 262 248 254 302 316 338 340 341 343 357 349 339 338 323 224 222 228 240 246 252 257 267 273 273 272 272 271 270 266 263 267 270 269 265 263 265 264 259 254 250
179 194 186 212 208 228 173 234 229 232 261 259 279 274 299 292 335 14 8 355 344 323 276 235 235 243 251 255 263 270 270 269 268 268 265 266 264 263 263 264 270 272 268 266 266 263 260 260 255
171 205 127 111 124 265 229 238 275 257 263 255 239 222 125 171 14 16 9 4 341 318 281 255 248 252 255 263 265 267 272 273 271 268 265 262 261 263 265 265 265 270 269 267 265 265 264 262 259
205 151 159 223 209 243 237 260 246 197 221 167 158 130 173 198 165 146 19 351 330 316 303 279 268 268 272 272 272 275 274 274 272 269 267 266 267 267 268 268 269 268 269 271 268 266 264 259 256
163 181 186 178 205 235 268 243 220 225 157 159 145 182 182 199 213 166 351 327 314 307 305 298 286 283 278 275 277 279 281 279 275 273 272 272 273 271 270 269 268 267 268 267 265 264 263 258 251
229 216 186 189 196 242 331 256 315 219 174 149 179 215 229 239 250 275 289 293 309 309 313 317 306 296 295 292 289 287 286 282 279 276 276 276 275 274 271 268 266 265 264 262 260 256 255 251 246